Wind_Speed
28 32 28 26 26 26 25 24 24 25 25 25 25 26 26 27 27 25 25 25 25 24 24 25 25 24 24 24 24 21 17 13 14 16 17 15 16 16 16 14 14 15 14
37 35 33 30 27 28 27 25 24 23 23 25 25 26 27 26 25 25 25 25 27 25 26 26 26 26 25 25 27 23 16 17 18 17 18 16 16 16 18 15 14 15 14
34 35 35 34 32 31 29 26 25 22 23 24 25 26 27 26 25 25 26 26 26 27 28 28 27 27 26 27 31 27 19 19 19 17 17 16 16 15 16 16 16 14 14
36 33 34 34 35 31 28 27 26 23 23 24 25 26 26 24 24 25 27 26 27 26 26 27 29 28 28 29 33 31 22 21 19 16 16 18 18 16 15 15 16 15 14
30 31 33 34 33 30 29 27 26 24 24 24 25 25 24 23 24 25 26 25 25 24 24 25 26 27 26 27 32 31 21 16 14 17 19 20 20 17 15 14 14 15 15
25 30 32 32 32 30 28 28 26 25 24 24 24 24 23 23 24 25 24 24 22 21 21 22 23 26 24 23 26 29 23 15 15 15 17 18 17 14 16 15 14 13 14
25 29 29 30 28 28 28 27 26 25 24 23 23 23 22 24 25 24 22 21 20 18 19 18 18 20 23 23 23 26 25 17 15 14 14 15 15 13 14 15 14 14 15
22 25 24 26 27 24 26 26 25 22 22 23 23 22 23 23 23 22 20 18 17 16 15 15 16 17 16 19 19 23 23 16 14 12 12 13 12 12 12 11 10 11 12
24 16 35 34 32 27 13 16 17 19 21 22 22 22 22 22 21 19 18 16 14 14 15 15 16 15 15 10 14 17 18 18 10 13 14 13 13 13 12 11 10 10 9
27 31 35 44 34 22 15 15 16 18 21 23 22 22 21 19 17 14 14 13 12 13 14 13 11 10 12 12 10 11 13 13 13 12 13 12 11 12 12 11 11 11 13
26 32 38 33 26 18 22 18 18 18 20 21 22 21 20 19 16 13 11 10 9 9 9 8 8 9 9 10 10 9 10 10 11 13 11 10 12 10 11 10 10 10 11
30 30 31 26 28 23 21 20 20 21 22 22 20 18 16 15 12 10 10 9 6 6 4 6 8 10 11 13 11 11 10 9 11 11 11 10 10 7 6 6 6 6 8
30 26 34 28 22 27 25 22 20 21 20 17 15 14 15 14 10 10 11 12 11 10 13 12 13 11 11 11 12 12 13 11 11 10 8 8 10 7 4 5 6 7 6
24 28 29 26 26 24 23 24 21 19 15 13 16 19 18 19 16 13 11 10 11 10 9 7 8 8 8 10 10 12 10 11 10 12 10 7 11 11 2 3 5 7 7
17 25 23 24 27 26 25 23 20 19 20 17 19 18 15 13 12 11 12 11 10 7 7 5 5 7 8 7 8 10 11 10 9 11 10 9 10 7 1 4 5 5 6
22 23 24 26 26 24 22 18 20 20 20 19 18 15 13 12 12 10 9 8 6 7 8 7 6 5 6 7 9 8 10 10 11 11 12 12 7 7 2 4 5 5 5
28 30 30 28 24 23 23 25 26 24 20 17 16 14 13 11 10 10 9 8 7 5 5 6 6 4 5 9 11 8 6 13 12 13 12 11 9 3 2 6 5 5 5
35 32 27 29 32 32 28 24 23 20 16 14 13 13 15 15 13 11 8 8 6 5 6 5 5 7 8 9 5 6 11 9 9 11 12 17 16 10 4 6 6 7 6
36 32 28 36 32 29 25 20 16 16 14 19 20 20 18 15 12 10 8 8 5 4 4 7 9 10 8 6 6 5 4 7 8 9 13 16 16 14 10 4 6 8 7
37 34 31 33 30 26 22 19 18 22 22 21 20 18 16 13 12 8 7 5 4 4 6 9 11 9 9 10 4 2 2 4 8 11 11 14 13 14 12 10 7 6 7
36 37 35 33 29 26 24 26 26 24 22 20 18 16 15 12 9 5 2 2 5 6 7 9 7 9 10 6 4 3 2 3 7 11 13 10 10 11 14 14 13 5 5
40 36 36 32 29 27 23 27 26 26 23 20 18 16 13 12 8 4 2 3 3 4 3 4 6 7 5 3 1 1 2 3 2 12 9 8 11 12 15 19 14 11 12
35 39 38 36 31 28 25 28 27 27 22 21 19 16 14 10 7 4 5 3 2 4 4 4 4 1 4 5 4 2 1 2 2 1 2 7 10 12 15 19 12 15 14
37 43 41 38 35 30 27 31 35 32 27 26 23 21 17 11 8 6 3 1 4 4 4 4 4 3 4 3 2 4 3 4 3 2 0 1 6 9 12 9 14 16 13
39 41 42 38 32 33 33 35 38 32 29 28 25 21 15 11 7 4 1 2 4 5 4 3 6 6 5 2 2 2 4 3 3 3 3 3 6 7 7 10 16 15 19
33 33 30 32 30 34 36 39 41 36 30 29 25 19 14 11 7 4 2 5 5 4 2 1 4 5 3 2 1 2 2 3 4 3 2 5 6 5 6 9 11 16 20
Wind_Direction
156 153 148 142 141 136 132 128 124 119 116 111 108 105 104 103 101 99 94 91 88 83 80 78 72 68 68 66 60 51 49 59 70 77 69 59 50 44 48 52 53 50 52
154 155 153 149 145 140 138 132 126 122 117 115 113 111 110 107 104 100 98 96 93 87 82 76 72 70 65 59 52 48 66 78 82 86 70 61 59 57 52 48 50 53 45
153 158 155 150 148 146 143 135 130 127 121 117 116 114 112 110 107 106 104 101 96 90 84 76 69 68 66 61 52 56 86 78 85 79 61 57 65 57 53 50 59 45 45
156 157 154 149 144 146 141 135 130 128 123 119 118 116 113 111 111 111 109 107 101 94 88 78 70 67 65 62 55 56 88 82 88 80 71 60 59 57 51 44 43 42 41
151 152 151 148 143 144 139 136 130 129 123 124 120 119 115 115 115 115 115 113 106 100 90 80 72 67 67 62 55 54 62 68 71 75 68 57 53 57 55 50 40 32 33
154 156 151 145 147 144 141 135 131 131 128 126 124 121 120 119 118 120 119 116 109 100 90 80 73 71 68 61 53 51 52 68 80 65 59 60 58 59 55 50 42 32 32
146 148 146 147 147 143 140 133 134 132 130 127 128 123 123 124 123 123 120 118 111 99 87 78 73 69 69 58 52 48 48 70 71 59 61 62 54 49 48 45 40 35 31
124 135 139 139 141 135 134 135 127 131 129 130 128 128 124 124 122 121 118 110 99 87 76 71 68 64 69 61 58 51 50 63 55 56 57 61 57 45 39 33 31 26 21
131 96 91 93 101 110 104 112 130 132 133 133 132 130 128 125 122 118 112 101 92 84 81 77 76 66 64 74 53 49 46 50 55 44 47 49 40 43 39 30 29 22 25
125 111 102 94 102 117 154 156 139 144 139 136 133 131 127 120 113 112 105 97 92 88 80 78 75 74 55 56 55 41 41 40 43 29 32 46 45 41 38 28 31 34 37
139 133 118 117 153 165 170 157 150 148 140 134 132 130 119 115 104 107 107 100 88 96 87 65 68 83 75 75 73 49 35 43 28 23 38 38 29 34 41 36 29 27 39
139 148 153 146 162 165 168 161 156 150 140 137 132 128 125 124 115 113 108 99 92 82 74 55 110 91 91 82 69 59 48 31 18 8 358 13 23 30 50 50 34 25 19
145 147 149 153 167 172 168 158 152 148 142 135 135 130 137 138 135 125 121 108 102 103 111 109 99 86 73 60 65 55 47 37 17 4 343 352 2 15 15 86 80 64 43
154 151 164 166 171 175 163 152 152 152 148 134 143 143 133 135 129 127 126 118 114 114 109 97 78 69 66 72 70 63 45 34 30 36 27 352 351 341 36 92 91 74 56
184 171 175 179 174 171 168 162 160 157 142 142 150 152 158 152 145 137 124 122 108 92 79 68 55 62 65 56 45 31 14 15 13 17 24 29 14 352 10 142 117 86 67
179 189 188 179 174 171 166 168 172 161 154 152 155 161 163 155 146 136 132 122 92 76 72 59 53 53 61 49 32 20 23 19 11 357 355 354 10 358 291 131 99 80 70
182 179 183 186 184 187 169 150 147 157 157 158 157 158 153 147 149 153 132 101 92 74 74 79 74 43 20 8 5 14 19 8 3 355 15 23 45 89 125 104 75 81 81
175 177 168 176 169 163 160 153 155 158 158 157 155 154 142 140 143 134 115 88 79 73 82 40 7 6 6 1 19 3 356 39 45 54 52 47 47 55 100 64 79 75 54
175 176 166 166 166 164 158 156 161 160 164 147 140 135 137 137 137 129 110 104 92 63 29 10 359 354 2 16 7 1 17 31 64 58 53 46 42 49 52 39 16 338 334
179 180 172 171 168 165 159 158 154 148 146 142 136 135 133 137 133 139 111 89 45 355 343 334 334 342 346 336 313 348 20 55 62 54 41 28 49 58 50 32 19 346 323
178 175 178 176 170 167 161 155 152 151 146 143 150 144 143 136 136 141 138 288 302 316 328 328 330 330 329 318 270 330 294 141 38 26 9 42 38 32 31 32 22 27 358
176 182 182 180 172 174 174 168 166 163 161 158 155 144 139 145 160 177 234 263 283 293 306 316 323 320 311 359 47 89 3 302 322 355 355 22 24 9 0 2 7 6 349
174 180 184 185 184 185 181 170 168 166 160 158 159 153 159 174 183 210 200 207 272 309 325 316 331 299 290 84 95 178 77 225 314 165 67 18 352 335 324 337 2 359 348
179 185 190 193 193 192 188 181 180 177 169 171 165 162 161 173 185 200 215 272 322 337 323 332 343 315 191 168 105 87 147 190 190 281 165 300 357 347 335 328 327 337 333
181 187 193 194 200 200 192 192 189 187 180 168 163 160 164 166 168 158 171 336 0 360 11 73 94 85 80 73 322 279 264 252 205 182 227 272 313 334 326 324 322 310 312
185 190 191 195 201 207 205 199 196 189 178 164 163 169 168 169 160 146 52 15 17 20 90 60 41 355 343 329 309 251 259 228 259 260 253 273 274 304 298 318 315 313 316
Height
804 806 811 813 817 821 825 828 829 830 831 830 832 832 833 835 838 841 844 845 845 846 846 847 847 848 847 847 847 847 846 845 844 845 846 845 845 845 842 842 841 841 840
797 804 806 810 818 820 825 828 830 832 833 832 833 833 834 838 841 844 845 848 846 847 849 850 849 848 849 851 849 848 847 846 845 847 847 847 846 847 845 846 844 843 843
802 804 806 807 814 818 822 826 829 834 835 835 836 836 836 840 843 845 847 850 850 849 851 852 853 851 851 853 853 849 848 849 849 849 849 849 848 848 846 847 846 848 847
801 807 808 810 810 820 824 826 829 835 836 837 839 839 839 842 844 847 848 851 851 852 853 854 855 854 854 855 855 854 852 851 851 853 852 851 849 848 849 850 849 849 848
804 808 810 813 815 822 824 828 830 836 836 838 838 840 842 844 846 848 849 852 852 855 855 856 857 856 855 857 857 855 858 857 854 855 854 852 853 852 852 851 852 852 850
808 811 814 814 817 822 826 829 832 834 837 838 839 840 844 846 848 850 853 853 855 856 857 858 859 858 858 858 859 859 857 857 857 859 856 855 855 855 853 852 853 854 851
813 817 816 819 821 824 829 830 833 834 837 838 841 842 845 847 848 850 853 855 856 858 858 859 861 861 860 861 859 861 860 859 859 861 860 858 858 859 855 853 854 854 853
817 818 820 819 823 829 833 835 833 836 837 840 842 845 848 850 851 853 856 858 859 860 861 862 862 862 862 863 862 863 863 862 863 864 862 859 859 859 858 856 855 855 855
821 817 817 822 828 832 836 835 839 840 841 842 844 847 849 851 853 856 857 859 861 862 863 863 863 864 864 863 864 865 864 864 865 865 864 862 861 860 858 858 856 857 854
822 819 824 823 830 834 843 843 842 844 843 843 845 850 852 854 855 858 859 861 863 863 864 865 865 863 864 863 865 865 864 864 864 866 865 863 863 861 859 859 857 856 856
825 827 828 829 836 840 844 843 843 845 847 847 850 852 853 855 857 860 861 862 864 864 865 865 865 865 863 863 864 865 865 864 864 865 864 864 863 861 861 859 858 857 856
822 828 825 828 833 837 843 843 844 846 847 849 851 854 855 857 859 860 861 862 863 864 864 865 865 865 864 864 865 863 866 865 863 865 863 863 863 863 860 859 859 857 856
821 827 829 831 833 838 839 841 844 848 850 851 853 856 856 856 859 860 860 862 864 863 864 865 865 865 865 865 864 864 865 864 863 864 862 862 861 862 861 858 859 858 856
825 827 833 833 833 837 839 840 845 848 851 851 854 855 856 857 860 860 860 862 863 865 864 866 865 866 865 865 864 864 863 862 863 863 861 862 859 861 859 860 860 858 857
829 829 831 833 835 838 839 841 844 849 850 851 853 854 855 857 859 859 861 862 864 864 865 864 864 865 864 864 864 863 863 864 862 861 861 859 858 860 859 858 857 857 856
830 832 833 834 838 839 842 842 846 849 848 850 852 852 855 856 858 859 862 862 863 865 863 862 863 863 863 863 863 864 863 863 861 859 858 856 857 857 857 857 856 856 856
828 831 831 834 838 840 841 843 845 847 848 850 851 853 854 856 856 860 862 862 863 862 862 863 864 863 862 862 863 863 863 862 860 859 858 858 856 856 857 857 856 855 855
827 829 831 834 837 840 841 844 846 848 849 849 850 853 852 854 857 860 862 860 861 861 862 862 863 862 861 862 863 862 861 861 861 861 861 859 859 857 858 857 856 856 856
824 827 829 833 836 838 841 845 846 847 848 849 850 851 853 854 857 860 860 860 860 861 861 862 863 863 862 861 861 861 862 862 862 862 862 861 860 859 858 857 857 856 855
822 826 829 833 834 838 839 844 846 848 849 849 849 852 854 855 857 859 858 859 860 860 862 863 864 862 861 861 861 862 863 863 863 862 863 862 861 860 859 857 856 855 854
823 825 827 830 833 835 838 841 845 845 847 849 850 852 854 854 856 857 857 858 859 860 862 862 862 862 862 861 861 861 862 862 862 862 863 862 861 860 859 858 856 854 853
818 824 828 830 832 835 837 838 839 844 848 849 851 851 851 853 855 856 857 858 859 860 861 861 861 861 861 860 860 861 862 862 860 861 862 860 859 859 858 858 857 855 853
815 819 824 828 831 834 836 838 841 845 846 848 849 849 851 853 854 855 856 857 859 859 859 859 859 859 859 859 858 859 862 864 861 859 858 858 857 857 857 856 855 854 852
808 813 818 823 827 830 832 835 837 838 840 843 846 848 851 853 854 855 856 857 858 858 857 856 855 856 856 857 858 858 858 857 858 858 854 853 853 853 853 853 852 851 850
804 808 812 818 824 828 829 831 833 836 838 841 846 849 851 853 854 855 856 856 855 855 857 856 853 854 856 857 856 856 855 854 853 852 852 849 848 847 848 848 847 847 846
805 807 812 814 818 822 824 826 829 832 836 841 845 848 850 851 853 854 855 855 855 854 854 855 853 855 855 854 854 854 853 853 853 852 851 848 846 845 843 843 843 842 842